Вернуться в каталог

STARLINK-34162

АктивенСвязьVLEO
NORAD 64018·PAYLOAD·🇺🇸 United States

Запущен May 14, 2025 с Cape Canaveral Space Force Station

Loading…

Ближайшие Пролёты (ближайшие 24 часа)

TLE

СвежийSource: CelesTrak SupGP

Эпоха: Sep 14, 2026, 22:46 UTC

1 64018C 25101AA  26257.94909722 -.00007481  00000+0 -27091-3 0  2572
2 64018  43.0044   9.1512 0001711 272.6362 302.6922 15.27587483    17

Отслеживайте STARLINK-34162 в реальном времени с AllMySat

Download on the App Store